Carrollton, GA

3:55 PM EST on November 21, 2019 (GMT -0500)
West Georgia Regional-Gray

Weather History for KCTJ - September, 2019

Change the Weather History Date:

Friday, September 6, 2019

  Actual Average Record
Temperature  
Mean Temperature 76 °F -  
Max Temperature 90 °F 84 °F 94 °F (1990)
Min Temperature 62 °F 61 °F 47 °F (1984)
Cooling Degree Days 11    
Growing Degree Days 26 (Base 50)    
Moisture  
Dew Point 59 °F    
Average Humidity 62    
Maximum Humidity 88    
Minimum Humidity 24    
Precipitation  
Precipitation 0.00 in - - ()
Sea Level Pressure  
Sea Level Pressure 29.99 in    
Wind  
Wind Speed 5 mph (NNW)    
Max Wind Speed 14 mph    
Max Gust Speed 22 mph    
Visibility 10 miles    
Events      
Averages and records for this station are not official NWS values.
T = Trace of Precipitation, MM = Missing Value Source: NWS Daily Summary

Daily Weather History Graph

Daily Weather History Graph

Search for Another Location

Airport or City:

Astronomy

Sep. 06, 2019 Rise Set
Actual Time 7:17 AM EDT 7:59 PM EDT
Civil Twilight 6:52 AM EDT 8:24 PM EDT
Nautical Twilight 6:22 AM EDT 8:54 PM EDT
Astronomical Twilight 5:52 AM EDT 9:24 PM EDT
Moon 3:03 PM EDT (9/6) 12:36 AM EDT (9/6)
Length of Visible Light 13h 32m
Length of Day
12h 41m
First Quarter, 55% of the Moon is Illuminated
Sep 6
First Quarter
Sep 14
Full
Sep 21
Last Quarter
Sep 28
New
Oct 5
First Quarter

Hourly Weather History & Observations

Time (EDT) Temp. Heat Index Dew Point Humidity Pressure Visibility Wind Dir Wind Speed Gust Speed Precip Events Conditions
12:15 AM 70.9 °F - 59.0 °F 66% 29.99 in 10.0 mi WNW 4.6 mph - N/A   Clear
12:35 AM 70.2 °F - 59.0 °F 68% 29.99 in 10.0 mi WNW 3.5 mph - N/A   Clear
12:55 AM 68.7 °F - 59.4 °F 72% 29.99 in 10.0 mi WNW 4.6 mph - N/A   Clear
1:15 AM 68.4 °F - 59.2 °F 72% 29.98 in 10.0 mi WNW 4.6 mph - N/A   Clear
1:35 AM 68.0 °F - 59.2 °F 73% 29.98 in 10.0 mi NW 3.5 mph - N/A   Clear
1:55 AM 67.3 °F - 59.4 °F 76% 29.98 in 10.0 mi NW 3.5 mph - N/A   Clear
2:15 AM 66.2 °F - 59.2 °F 78% 29.98 in 10.0 mi Calm Calm - N/A   Clear
2:35 AM 64.2 °F - 59.2 °F 84% 29.98 in 10.0 mi NW 3.5 mph - N/A   Clear
2:55 AM 65.3 °F - 59.5 °F 82% 29.97 in 10.0 mi NW 4.6 mph - N/A   Clear
3:15 AM 64.9 °F - 59.5 °F 83% 29.97 in 10.0 mi NW 4.6 mph - N/A   Clear
3:35 AM 64.8 °F - 59.5 °F 83% 29.97 in 10.0 mi NW 5.8 mph - N/A   Clear
3:55 AM 64.9 °F - 59.5 °F 83% 29.97 in 10.0 mi NW 5.8 mph - N/A   Clear
4:15 AM 64.9 °F - 59.5 °F 83% 29.96 in 10.0 mi NW 8.1 mph - N/A   Clear
4:35 AM 65.1 °F - 59.4 °F 82% 29.96 in 10.0 mi NNW 5.8 mph - N/A   Clear
4:55 AM 65.1 °F - 59.4 °F 82% 29.96 in 10.0 mi NNW 6.9 mph - N/A   Clear
5:15 AM 65.3 °F - 59.4 °F 81% 29.97 in 10.0 mi NNW 5.8 mph - N/A   Clear
5:35 AM 64.9 °F - 59.2 °F 82% 29.97 in 10.0 mi NW 4.6 mph - N/A   Clear
5:55 AM 64.6 °F - 59.2 °F 83% 29.97 in 10.0 mi NNW 4.6 mph - N/A   Clear
6:15 AM 64.4 °F - 59.0 °F 83% 29.98 in 10.0 mi NNW 5.8 mph - N/A   Clear
6:35 AM 64.2 °F - 59.0 °F 83% 29.98 in 10.0 mi NNW 4.6 mph - N/A   Clear
6:55 AM 63.9 °F - 59.0 °F 84% 29.99 in 10.0 mi NW 3.5 mph - N/A   Clear
7:15 AM 63.0 °F - 58.6 °F 86% 29.99 in 10.0 mi Calm Calm - N/A   Clear
7:35 AM 62.1 °F - 58.5 °F 88% 30.00 in 10.0 mi Calm Calm - N/A   Clear
7:55 AM 62.2 °F - 58.3 °F 87% 30.01 in 10.0 mi NNW 3.5 mph - N/A   Clear
8:15 AM 64.2 °F - 59.0 °F 83% 30.01 in 10.0 mi Calm Calm - N/A   Clear
8:35 AM 66.0 °F - 59.4 °F 79% 30.02 in 10.0 mi NNW 3.5 mph - N/A   Clear
8:55 AM 67.6 °F - 59.7 °F 76% 30.02 in 10.0 mi NNW 9.2 mph - N/A   Clear
9:15 AM 68.7 °F - 59.9 °F 73% 30.03 in 10.0 mi NNW 8.1 mph - N/A   Clear
9:35 AM 70.0 °F - 60.3 °F 71% 30.03 in 10.0 mi North 8.1 mph - N/A   Clear
10:15 AM 73.6 °F - 60.8 °F 64% 30.02 in 10.0 mi North 9.2 mph - N/A   Clear
10:35 AM 75.6 °F - 61.0 °F 60% 30.03 in 10.0 mi NNW 9.2 mph - N/A   Clear
10:55 AM 76.8 °F - 61.0 °F 58% 30.03 in 10.0 mi North 8.1 mph - N/A   Clear
11:15 AM 77.5 °F - 61.0 °F 57% 30.03 in 10.0 mi NNW 8.1 mph - N/A   Clear
11:35 AM 78.1 °F - 60.1 °F 54% 30.03 in 10.0 mi NNW 10.4 mph - N/A   Clear
11:55 AM 78.6 °F - 59.4 °F 51% 30.03 in 10.0 mi NNW 8.1 mph - N/A   Clear
12:15 PM 79.9 °F - 59.0 °F 49% 30.03 in 10.0 mi NNW 8.1 mph - N/A   Clear
12:35 PM 80.8 °F 81.1 °F 58.3 °F 46% 30.02 in 10.0 mi NNW 6.9 mph 18.4 mph N/A   Clear
12:55 PM 81.9 °F 81.9 °F 58.8 °F 45% 30.02 in 10.0 mi NNW 9.2 mph - N/A   Clear
1:15 PM 82.9 °F 82.7 °F 58.1 °F 43% 30.01 in 10.0 mi NW 9.2 mph - N/A   Clear
1:35 PM 84.0 °F 83.0 °F 55.6 °F 38% 30.01 in 10.0 mi NW 5.8 mph - N/A   Clear
1:55 PM 85.1 °F 83.5 °F 53.6 °F 34% 30.01 in 10.0 mi North 10.4 mph - N/A   Clear
2:15 PM 86.2 °F - 52.5 °F 31% 30.00 in 10.0 mi North 8.1 mph - N/A   Clear
2:35 PM 87.3 °F - 52.7 °F 30% 29.99 in 10.0 mi NNW 13.8 mph - N/A   Clear
2:55 PM 88.2 °F - 50.2 °F 27% 29.98 in 10.0 mi NNW 10.4 mph 18.4 mph N/A   Clear
3:15 PM 88.7 °F - 49.6 °F 26% 29.98 in 10.0 mi NNW 6.9 mph - N/A   Clear
3:35 PM 89.8 °F - 48.9 °F 24% 29.98 in 10.0 mi North 11.5 mph 21.9 mph N/A   Clear
3:55 PM 90.5 °F - 48.7 °F 24% 29.97 in 10.0 mi North 11.5 mph - N/A   Clear
4:15 PM 90.3 °F - 50.7 °F 26% 29.97 in 10.0 mi North 13.8 mph 19.6 mph N/A   Clear
4:35 PM 89.8 °F 87.3 °F 53.1 °F 28% 29.97 in 10.0 mi North 10.4 mph 17.3 mph N/A   Clear
4:55 PM 90.0 °F 87.9 °F 54.9 °F 30% 29.97 in 10.0 mi North 11.5 mph - N/A   Clear
5:55 PM 88.9 °F 87.7 °F 58.3 °F 35% 29.97 in 10.0 mi NW 10.4 mph - N/A   Clear
6:15 PM 88.0 °F 87.1 °F 58.8 °F 37% 29.98 in 10.0 mi NNW 6.9 mph - N/A   Clear
6:35 PM 87.3 °F 86.5 °F 58.5 °F 38% 29.97 in 10.0 mi NW 10.4 mph - N/A   Clear
6:55 PM 86.4 °F 85.4 °F 57.7 °F 38% 29.98 in 10.0 mi NNW 6.9 mph - N/A   Clear
7:15 PM 85.5 °F 84.6 °F 57.7 °F 39% 29.98 in 10.0 mi NW 4.6 mph - N/A   Clear
7:35 PM 84.2 °F 83.7 °F 58.5 °F 41% 29.98 in 10.0 mi NW 3.5 mph - N/A   Clear
7:55 PM 82.0 °F 82.2 °F 59.4 °F 46% 29.98 in 10.0 mi Calm Calm - N/A   Clear
8:15 PM 77.9 °F - 61.5 °F 57% 29.98 in 10.0 mi Calm Calm - N/A   Clear
8:35 PM 76.8 °F - 61.3 °F 59% 29.98 in 10.0 mi Calm Calm - N/A   Clear
8:55 PM 74.5 °F - 62.6 °F 66% 29.99 in 10.0 mi Calm Calm - N/A   Clear
9:15 PM 73.4 °F - 62.4 °F 68% 29.99 in 10.0 mi NW 3.5 mph - N/A   Clear
9:35 PM 72.5 °F - 62.6 °F 71% 30.00 in 10.0 mi Calm Calm - N/A   Clear
9:55 PM 70.5 °F - 62.6 °F 76% 30.01 in 10.0 mi WNW 3.5 mph - N/A   Clear
10:15 PM 71.1 °F - 62.1 °F 73% 30.01 in 10.0 mi WNW 3.5 mph - N/A   Clear
10:35 PM 71.2 °F - 61.9 °F 72% 30.01 in 10.0 mi WNW 3.5 mph - N/A   Clear
10:55 PM 69.8 °F - 61.9 °F 76% 30.01 in 10.0 mi Calm Calm - N/A   Clear
11:15 PM 68.7 °F - 61.9 °F 79% 30.01 in 10.0 mi Calm Calm - N/A   Clear
11:35 PM 68.0 °F - 61.9 °F 81% 30.02 in 10.0 mi Calm Calm - N/A   Clear
11:55 PM 67.8 °F - 62.1 °F 82% 30.02 in 10.0 mi Calm Calm - N/A   Clear